Regional Weather Roundup
Issued by NWS Green Bay, WI

Home | Current Version | Previous Version | Text Only | Print | Product List | Glossary On
Versions: 1 2 3 4 5 6 7 8 9 10 11 12 13 14 15 16 17 18 19 20 21 22 23 24 25 26 27 28 29 30 31 32 33 34 35 36 37 38 39 40 41 42 43 44 45 46 47 48 49 50
038
ASUS43 KGRB 230100
RWRGRB

NORTH-CENTRAL AND NORTHEAST WISCONSIN REGIONAL WEATHER ROUNDUP
NATIONAL WEATHER SERVICE GREEN BAY WI
700 PM CST WED FEB 22 2017

WIZ005-009-010>012-018-019-230200-
NORTH CENTRAL WISCONSIN

CITY           SKY/WX    TMP DP  RH WIND       PRES   REMARKS
IRONWOOD       MOCLDY    37  34  89 N7        29.60R
MANITOWISH WTR NOT AVBL
ARBOR VITAE    NOT AVBL
EAGLE RIVER    NOT AVBL
LAND O LAKES   MIX PCPN  41  41 100 CALM      29.59R
RHINELANDER    LGT RAIN  43  42  97 SW3       29.59R
PHILLIPS       CLOUDY    41  41 100 NE3       29.57F
ANTIGO         NOT AVBL
TOMAHAWK       NOT AVBL
MERRILL        NOT AVBL
$$

WIZ013-073-230200-
NORTHEAST WISCONSIN

CITY           SKY/WX    TMP DP  RH WIND       PRES   REMARKS
IRON MOUNTAIN  RAIN      46  39  76 E3        29.56R
MARINETTE      LGT RAIN  40  38  93 E7        29.57R
OCONTO         CLOUDY    42  40  92 E3        29.56S
$$

WIZ017-030-035>037-045-230200-
CENTRAL WISCONSIN

CITY           SKY/WX    TMP DP  RH WIND       PRES   REMARKS
MEDFORD        NOT AVBL
WAUSAU         MOCLDY    50  38  63 NW5       29.53F
MOSINEE        MOCLDY    48  39  71 N6        29.55F
MARSHFIELD     CLOUDY    47  40  76 CALM      29.53F
WISC RAPIDS    CLOUDY    45  36  70 CALM      29.56R
STEVENS POINT  NOT AVBL
WAUPACA        CLEAR     52  37  58 CALM      29.54F
SHAWANO        MOCLDY    51  40  64 CALM      29.54F
CLINTONVILLE   CLOUDY    50  37  62 SE3       29.54F
WAUTOMA        CLEAR     48  38  68 CALM      29.54F
$$

WIZ038-039-048-051-230200-
FOX VALLEY

CITY           SKY/WX    TMP DP  RH WIND       PRES   REMARKS
NWS GREEN BAY  MOCLDY    49  44  83 NE8       29.55F
APPLETON       MOCLDY    48  37  66 N9        29.53F
OSHKOSH        CLEAR     55  42  61 N10       29.53S
FOND DU LAC    CLEAR     53  46  77 SW5       29.53S
$$

WIZ022-050-052-230200-
EAST CENTRAL WISCONSIN

CITY           SKY/WX    TMP DP  RH WIND       PRES   REMARKS
EPHRAIM        NOT AVBL
WASHINGTON ISL CLOUDY    37  37  98 SE7       29.55F FOG
STURGEON BAY   CLOUDY    40  39  97 SE7       29.58R FOG
MANITOWOC      NOT AVBL
SHEBOYGAN      MOCLDY    46  41  82 S7        29.54R
$$

LMZ563-521-522-541>543-230200-
LAKESHORE

STATION/POSITION TIME  TEMP    WIND        PRES    VSBY  WAVE
                       AIR SEA DIR/SP/G                  HT/PER
                 (UTC) (F)     (DEG/KT/KT) (MB)    (MI)  (FT/S)
SHEBOYGAN LKSHOR 0000   48     180/  8/  9 1000.3R
KEWAUNEE LKSHORE 0030   38      CALM  /  5 1000.1F
NORTHPORT PIER   0040   39     150/ 12/ 16 1001.4F
CHAMBERS ISLAND  0040   41      90/  7/ 11 1000.7F
MENOMINEE LKSHOR 0030   37      70/  9/ 11 1000.1F
$$




USA.gov is the U.S. government's official web portal to all federal, state and local government web resources and services.